Temperature
16 17 17 17 14 11 13 13 14 15 15 15 15 15 14 13 14 13 12 13 13 14 14 14 14 14 14 14 14 14 14 14 14 15 14 14 14 14 15 15 15 15 15 15 15 15 15 15 15
16 17 17 16 12 12 12 12 13 14 15 15 15 14 13 12 12 12 12 12 13 13 13 13 13 13 14 14 14 14 14 14 14 14 14 14 14 14 14 14 14 15 15 15 15 14 14 14 14
16 16 16 11 11 12 13 13 13 14 15 15 13 13 12 11 11 11 12 12 13 13 13 13 13 13 13 13 13 13 13 14 14 14 14 14 14 14 14 14 14 14 14 14 14 14 14 14 14
16 16 14 10 11 11 12 12 12 13 14 14 12 11 11 10 10 11 12 12 12 13 13 13 13 13 13 13 13 13 13 13 13 13 14 14 14 14 14 14 14 14 14 14 14 14 14 14 14
15 14 10 10 10 11 11 12 12 12 12 12 12 10 10 10 10 11 12 12 12 12 13 13 13 13 13 13 13 13 13 13 13 13 13 13 13 13 13 14 14 14 14 14 14 14 14 14 14
14 11 9 10 10 11 10 11 11 10 11 11 10 9 9 9 10 11 11 12 12 12 12 12 12 12 12 12 12 13 12 13 13 13 13 13 13 13 13 13 13 13 14 14 14 13 13 13 13
12 8 9 10 10 10 10 10 10 9 9 9 10 8 8 9 10 10 11 11 11 12 12 12 12 12 12 12 12 12 12 12 12 12 13 13 13 13 13 13 13 13 13 14 13 13 13 13 13
12 8 9 9 9 9 9 9 9 9 8 9 9 8 7 8 9 9 10 11 11 11 11 12 12 12 12 12 12 12 12 12 12 12 12 12 12 13 13 13 13 13 13 13 13 13 13 13 13
12 7 8 9 9 8 8 8 8 8 8 8 8 8 8 8 8 9 10 10 10 11 11 11 11 11 11 11 11 11 11 11 12 12 12 12 12 12 12 13 13 13 13 13 13 13 13 13 13
10 6 8 8 8 7 7 7 7 7 7 6 7 7 7 8 8 9 9 9 10 10 10 10 10 10 11 11 11 11 11 11 11 11 11 11 12 12 12 12 12 12 12 12 12 12 12 12 13
7 6 7 7 7 7 7 6 7 6 5 6 6 6 7 7 7 8 8 8 9 9 9 10 10 10 10 10 10 11 11 11 11 11 11 11 11 11 11 11 11 12 12 12 12 12 12 12 12
6 6 7 6 7 6 6 6 6 5 6 6 6 6 6 6 6 7 8 8 8 8 9 9 9 9 9 10 10 10 10 10 10 10 10 10 11 11 11 11 11 11 11 11 12 12 11 12 12
5 5 6 6 6 5 5 5 5 5 5 6 6 5 6 6 6 6 7 7 7 8 8 8 8 9 9 9 9 9 9 10 10 10 10 10 10 10 10 10 10 10 11 11 11 11 11 11 11
5 5 5 5 5 5 5 4 4 4 5 5 5 5 5 5 6 6 6 7 7 7 7 7 8 8 8 8 9 9 9 9 9 9 9 9 9 10 10 10 10 10 10 10 10 11 11 11 11
5 4 4 5 5 5 4 3 3 5 5 4 4 5 5 5 5 5 6 6 6 7 7 7 7 7 8 8 8 8 8 8 9 9 9 9 9 9 9 9 9 9 9 10 10 10 10 10 10
5 4 4 4 4 4 4 3 4 4 4 4 4 4 4 4 5 5 5 5 6 6 6 7 7 7 7 7 7 8 8 8 8 8 8 8 8 9 9 9 9 9 9 9 9 10 10 10 10
3 3 4 4 4 4 3 2 3 4 3 3 3 3 4 4 4 4 5 5 5 6 6 6 6 6 6 6 7 7 7 7 7 7 8 8 8 8 8 8 8 9 9 9 9 9 9 9 10
3 3 3 3 3 3 2 2 2 3 3 3 3 3 3 3 4 4 4 4 5 5 5 6 6 6 6 6 6 6 6 7 7 7 7 7 7 8 8 8 8 8 8 8 8 9 9 9 9
3 3 3 3 3 3 2 2 2 2 2 2 2 2 2 3 3 3 4 4 4 5 5 5 5 5 5 5 5 6 6 6 6 7 7 7 7 7 7 7 7 7 8 8 8 8 8 8 9
3 3 2 2 3 3 1 1 2 2 1 2 2 2 2 2 2 3 3 3 4 4 4 5 5 5 5 5 5 5 5 5 6 6 6 7 7 7 7 7 7 7 7 7 7 8 8 8 8
3 2 2 2 2 2 1 1 1 2 2 2 1 2 2 2 1 2 2 3 3 3 3 4 4 4 4 4 4 4 4 5 5 5 6 6 6 6 6 7 7 7 7 7 7 7 7 8 8
2 2 2 2 1 0 1 1 1 1 1 1 1 1 1 1 1 1 2 2 2 3 3 3 4 4 4 4 4 4 4 4 4 5 5 5 5 6 6 6 6 6 6 6 7 7 7 7 7
2 2 1 1 0 -1 -0 -0 1 -0 0 0 -0 0 1 1 1 1 1 2 2 2 2 3 3 3 3 3 3 3 3 3 4 4 4 5 5 5 5 5 5 6 6 6 6 6 6 7 7
1 1 0 -1 -1 -0 -0 -0 0 -1 -0 -0 -1 -0 -0 0 0 1 1 1 2 2 2 2 2 3 3 3 3 3 3 3 3 4 4 4 4 5 5 5 5 5 5 6 6 6 6 6 6
0 -0 0 0 -1 -0 -0 -0 -0 -1 -1 -1 -1 -1 -0 -0 -0 0 0 1 1 1 2 2 2 2 2 2 2 2 2 3 3 3 3 4 4 4 4 5 5 5 5 5 5 5 6 6 6
-0 -0 0 1 0 -0 -1 -1 -1 -1 -1 -1 -1 -1 -1 -0 -0 -0 -0 0 0 1 1 1 1 1 1 1 2 2 2 2 2 2 3 3 3 4 4 4 4 4 5 5 5 5 5 5 6
-0 -1 -1 -2 -2 -2 -2 -2 -2 -1 -2 -2 -1 -1 -1 -1 -1 -1 -1 -0 -0 0 0 0 1 1 1 1 1 1 1 1 2 2 2 2 3 3 3 4 4 4 4 4 4 4 5 5 5
-1 -2 -3 -2 -1 -1 -2 -2 -2 -2 -2 -3 -3 -2 -1 -1 -1 -1 -1 -1 -1 -0 -0 0 0 0 0 0 0 0 1 1 1 1 2 2 2 3 3 3 3 4 4 4 4 4 4 4 5
-2 -2 -3 -3 -3 -2 -2 -1 -2 -3 -3 -3 -3 -2 -2 -2 -2 -2 -2 -1 -1 -1 -1 -0 -0 -0 -0 -0 -0 -0 0 0 1 1 1 1 1 2 2 3 3 3 3 3 4 4 4 4 4
-3 -3 -4 -2 -3 -4 -4 -2 -2 -3 -3 -2 -2 -2 -2 -2 -2 -2 -2 -2 -2 -1 -1 -1 -1 -1 -1 -1 -1 -1 -0 -0 0 0 0 1 1 1 2 2 2 2 3 3 3 3 3 4 4
Wind_Speed
18 13 2 4 6 5 1 3 1 1 1 1 2 6 7 5 3 4 1 2 4 2 2 4 5 6 7 8 9 9 9 9 10 10 11 11 11 12 12 13 13 14 14 14 13 13 13 14 14
11 4 5 5 5 2 3 3 2 2 2 1 4 5 6 5 3 4 2 4 4 3 3 4 6 7 8 9 9 9 9 9 9 9 10 11 11 11 12 12 13 13 13 13 13 12 12 13 13
7 2 5 5 4 5 4 2 3 2 3 3 3 5 4 3 2 1 2 2 4 5 5 4 7 8 8 9 9 8 8 9 9 9 9 10 10 11 11 12 12 13 13 12 12 12 11 12 12
3 5 5 4 3 3 3 2 2 0 3 5 3 4 3 3 1 1 1 4 6 7 6 6 7 8 8 8 8 8 8 8 8 8 8 9 9 10 11 11 11 12 12 12 11 11 11 11 12
4 5 4 1 2 2 1 2 2 2 2 3 3 4 3 3 4 4 4 6 6 6 7 7 7 7 8 8 8 8 8 8 8 7 8 8 9 10 10 10 10 11 10 10 10 10 10 10 11
4 5 4 3 3 1 1 4 2 3 3 4 4 3 2 3 6 5 5 5 6 6 7 8 7 7 7 7 8 8 8 8 8 7 7 8 9 10 10 9 9 9 10 9 9 9 9 10 10
4 4 4 4 3 1 1 3 3 2 3 3 2 2 1 3 4 4 4 5 7 8 8 8 7 7 6 7 6 7 7 8 7 7 7 7 9 9 9 8 8 8 8 8 8 8 8 9 10
4 5 2 2 3 2 1 2 2 3 1 3 3 3 2 3 3 4 4 5 6 8 8 8 7 7 6 5 6 6 7 7 7 7 7 8 8 8 8 8 7 7 7 7 7 7 7 8 9
4 4 3 3 4 2 1 2 3 2 3 3 3 1 1 0 3 5 5 5 5 6 6 7 8 7 6 5 4 5 6 7 7 6 7 7 7 7 7 6 6 6 6 6 6 6 6 7 8
4 3 4 1 1 2 1 2 1 3 3 3 4 5 3 3 4 5 4 4 4 4 4 6 6 7 6 4 4 4 4 5 6 6 6 5 6 6 5 5 5 5 5 5 5 5 6 6 6
3 4 2 1 2 2 1 2 2 2 1 1 1 2 3 3 3 3 3 2 2 1 3 4 5 5 5 5 4 3 4 4 4 5 5 5 5 5 5 4 4 4 4 4 4 4 4 4 5
3 2 1 1 2 3 1 0 1 0 3 2 1 1 1 1 1 1 1 1 1 2 2 3 5 5 5 4 3 3 3 3 3 3 4 4 4 3 3 3 2 2 2 3 3 3 3 3 4
2 1 2 2 4 4 3 0 1 3 3 1 0 1 0 1 1 0 1 1 2 2 2 2 3 3 4 4 3 3 2 2 2 2 2 3 3 2 2 2 2 1 1 2 2 2 2 2 3
2 2 1 1 1 1 1 2 1 4 1 1 0 1 1 1 1 1 1 1 1 1 2 2 2 3 3 3 3 2 2 1 1 2 1 3 3 2 2 1 1 1 1 2 3 2 2 2 3
2 2 3 2 1 1 1 4 3 3 1 1 2 2 2 2 1 0 1 0 0 1 2 2 2 2 2 3 3 2 2 1 1 1 1 2 2 2 2 2 1 2 2 2 2 2 3 2 2
3 3 3 3 1 1 2 6 4 2 2 3 4 3 3 3 2 2 2 1 1 1 1 2 2 2 2 2 2 2 2 1 1 1 1 2 3 3 3 2 2 2 2 2 1 1 1 2 2
3 1 3 4 1 1 2 6 5 2 2 4 4 3 3 3 3 2 2 1 1 1 1 1 1 1 1 1 2 3 2 2 1 1 1 2 3 3 2 2 2 3 2 1 1 1 1 2 2
2 2 2 4 2 1 4 8 7 4 4 4 4 4 3 3 4 3 3 2 1 1 1 0 1 1 1 1 2 2 2 3 2 1 1 1 2 3 2 2 2 3 2 1 2 2 1 2 2
2 2 3 4 2 2 6 9 9 5 4 4 4 3 3 4 4 3 2 2 3 2 2 1 0 1 1 0 0 1 2 2 2 2 2 2 2 3 2 1 2 2 3 3 3 1 2 2 2
0 1 2 3 2 3 5 9 8 5 4 4 4 4 3 3 4 4 4 3 3 4 3 2 1 1 1 1 2 2 2 2 3 2 2 3 3 3 2 2 2 2 2 3 3 3 2 2 2
1 2 3 4 5 2 4 7 4 3 2 2 2 2 2 2 3 3 3 3 4 4 4 4 3 2 2 1 1 1 1 2 2 2 2 3 3 3 3 3 2 3 3 4 4 5 3 4 3
2 2 2 3 3 4 2 5 6 3 4 3 3 3 3 2 2 2 3 4 4 4 5 4 4 3 2 1 2 2 2 3 4 3 3 4 4 3 3 3 3 3 3 4 5 4 3 5 4
3 2 2 2 1 3 2 2 7 3 5 6 5 4 3 2 2 3 3 3 4 4 4 4 4 3 3 2 2 3 3 4 3 3 3 3 3 4 4 4 3 3 3 4 5 4 4 4 5
1 3 3 3 3 3 3 4 6 3 4 5 4 3 3 2 3 3 3 4 5 5 5 5 4 4 3 2 2 3 4 4 4 4 4 4 3 3 4 4 4 4 3 4 5 5 6 5 5
5 4 4 5 3 5 2 3 7 5 4 3 4 4 4 2 2 3 4 5 5 6 6 5 5 4 4 3 3 3 4 5 6 5 5 4 4 4 5 5 5 4 5 5 5 5 6 6 6
1 4 4 3 5 5 3 5 6 3 3 3 3 3 4 4 4 4 4 4 5 6 6 5 5 5 4 4 4 4 4 4 5 5 5 5 5 5 6 6 6 6 6 6 5 5 6 6 6
2 1 3 3 1 4 6 6 6 3 4 4 4 4 5 5 5 5 5 5 5 6 6 5 5 5 5 5 5 5 4 4 4 4 4 4 4 5 6 6 6 6 6 6 6 6 7 6 7
2 4 4 3 2 5 6 5 4 5 5 4 4 5 5 6 6 6 6 6 6 6 6 6 5 5 5 5 5 5 4 4 4 4 4 5 5 5 5 5 6 6 6 7 7 6 7 7 7
2 2 2 3 3 3 5 7 5 6 5 5 6 5 6 7 7 6 6 6 6 6 6 6 6 5 5 5 5 5 5 4 3 4 5 5 5 5 5 5 5 5 6 6 7 7 7 8 7
4 5 5 3 4 4 3 8 4 4 4 4 5 6 6 7 6 6 6 6 6 6 6 6 6 6 6 5 5 5 5 5 4 5 5 5 5 5 5 5 5 5 5 6 7 7 7 8 8
Wind_Direction
331 330 21 54 58 60 199 255 247 48 38 359 62 89 100 92 94 131 272 11 22 49 105 125 110 107 108 107 101 100 95 92 90 89 89 86 84 85 85 87 87 86 85 83 84 85 87 89 90
329 341 48 61 98 136 257 265 238 243 207 118 61 69 79 73 59 87 10 347 26 56 89 117 107 109 108 103 101 102 98 94 92 91 91 89 87 85 87 87 87 86 85 85 84 85 86 87 89
330 38 74 81 122 178 200 235 222 264 6 40 58 49 80 82 65 55 327 356 52 56 75 100 109 111 113 107 102 101 101 99 97 95 93 92 91 89 86 89 89 87 86 88 87 83 85 86 87
43 48 58 83 170 214 193 259 271 315 15 24 76 75 70 51 39 334 26 55 66 51 61 83 106 112 113 112 108 103 100 100 99 96 95 96 94 91 91 90 93 91 90 89 89 84 84 87 87
59 77 75 80 211 224 257 330 1 35 24 13 54 101 93 6 25 60 72 71 72 56 53 73 85 102 109 113 112 105 104 100 99 97 97 98 96 94 93 94 96 97 95 91 89 88 82 87 91
57 73 106 194 214 214 315 341 29 27 14 16 39 92 130 14 35 43 58 63 65 63 54 58 64 86 94 106 111 107 103 101 98 97 100 100 98 97 95 95 93 100 100 97 91 88 82 84 91
99 100 149 178 197 230 314 8 59 37 15 356 17 99 160 350 9 36 58 60 59 54 50 47 49 56 84 91 100 103 100 101 98 93 95 97 99 100 100 97 94 99 104 102 96 90 83 82 89
111 107 121 172 183 224 338 28 46 44 333 350 54 124 198 288 343 43 56 62 59 49 42 33 37 42 49 78 84 92 99 98 96 93 93 97 102 105 106 102 99 98 106 108 103 94 86 85 87
79 88 179 192 183 206 14 50 359 17 64 25 34 94 210 270 40 51 50 44 44 41 33 27 24 29 37 54 78 82 99 99 97 93 93 97 101 104 107 109 109 103 106 114 110 99 93 88 87
71 143 196 200 161 152 53 61 29 30 29 12 10 10 36 62 61 64 63 55 40 28 21 22 19 20 25 35 54 75 88 96 92 87 89 94 101 103 103 114 117 112 111 119 114 101 98 88 88
79 156 161 49 62 94 84 40 37 102 288 242 290 343 18 61 54 60 59 69 58 28 22 17 14 20 24 21 37 57 71 75 88 87 85 89 92 95 97 97 102 103 113 113 105 99 95 91 100
78 42 68 27 31 56 79 62 17 36 244 255 206 187 28 66 94 83 58 37 38 38 15 7 12 22 22 26 30 45 56 54 59 84 95 97 89 87 95 100 113 109 124 123 114 113 90 88 108
88 91 45 52 56 69 71 50 288 286 289 326 97 52 76 341 241 176 118 60 42 34 1 348 3 19 24 26 29 35 34 52 76 82 102 110 104 104 109 107 115 117 139 146 134 132 91 93 109
108 92 33 1 7 19 78 319 320 267 285 11 13 226 241 280 279 13 40 35 16 359 332 337 352 18 32 27 20 22 15 46 106 98 126 132 130 132 131 137 139 142 163 177 169 160 138 134 123
91 49 356 325 275 215 80 313 251 246 198 267 269 252 269 290 301 264 257 287 296 313 327 321 332 24 32 24 12 17 6 23 54 143 184 169 145 160 159 167 186 195 188 176 157 131 127 115 113
55 48 330 303 252 163 130 263 268 225 198 238 264 263 270 278 262 263 267 285 291 326 337 321 345 17 22 19 7 2 358 3 355 197 205 202 176 172 174 182 203 195 178 156 150 123 126 120 124
41 353 275 295 274 141 175 253 276 264 223 244 264 266 272 289 296 296 290 286 269 239 250 304 1 1 358 15 15 0 348 353 329 234 220 221 189 179 187 195 203 183 167 170 162 157 144 146 138
245 249 265 264 271 198 236 257 271 263 244 251 262 266 274 277 278 291 296 301 303 278 263 327 2 341 3 24 16 1 351 352 341 317 255 229 200 187 191 202 200 179 169 189 173 169 163 164 159
169 190 252 265 279 267 251 267 276 264 253 264 266 258 270 274 290 305 318 332 349 353 353 329 343 312 11 52 293 256 256 276 298 310 265 235 220 194 180 199 197 193 188 197 177 164 159 161 146
135 236 274 297 324 288 282 281 273 252 230 233 238 242 252 305 331 333 341 353 352 346 343 329 294 278 285 221 216 226 240 246 264 287 286 240 228 206 190 182 197 207 197 196 182 157 168 196 178
301 212 245 277 321 324 315 298 276 288 242 263 237 227 246 268 286 310 336 343 352 344 333 328 319 300 295 281 247 265 292 300 287 268 270 287 247 219 210 211 207 209 197 203 199 181 180 191 213
276 248 260 293 341 305 5 296 290 297 305 295 280 286 289 311 318 333 339 341 336 320 316 314 312 309 290 276 220 214 233 252 268 251 248 281 265 238 215 217 216 209 205 207 207 198 202 187 201
250 300 290 290 203 315 308 234 289 321 298 294 290 292 305 315 328 333 332 330 331 326 319 314 322 323 317 298 238 222 246 251 270 257 252 255 272 255 226 217 222 218 220 217 211 206 209 203 207
333 16 23 39 68 299 245 197 284 261 262 299 310 304 303 314 328 329 329 342 344 339 333 327 331 325 320 300 266 237 244 257 266 264 251 249 250 254 244 225 228 228 228 229 221 211 212 217 222
44 63 18 354 353 259 264 223 253 260 272 272 282 294 304 311 331 330 331 337 337 334 332 332 328 319 314 295 278 267 254 245 245 246 243 248 248 252 240 239 232 234 234 238 230 217 219 217 221
26 122 149 228 255 285 302 244 256 276 301 299 302 307 320 324 325 319 316 320 319 317 319 322 319 314 315 304 285 271 261 255 258 244 243 241 239 245 246 242 237 240 235 238 230 225 226 223 225
120 161 162 148 294 287 275 283 300 296 326 336 339 335 322 322 319 312 315 314 311 309 310 308 307 307 309 300 292 280 273 269 270 265 255 249 251 260 254 250 235 238 235 235 228 225 227 227 227
118 142 104 138 220 273 289 276 263 278 286 301 308 307 305 310 313 310 312 312 309 304 307 311 310 303 299 297 296 297 286 273 268 273 270 261 261 266 254 249 236 234 236 236 228 230 231 228 231
128 132 142 154 181 202 277 275 233 232 246 258 270 279 287 295 301 302 307 311 310 311 311 314 320 316 307 303 303 302 290 284 282 275 270 269 266 263 252 252 241 234 233 233 229 230 231 231 233
182 181 159 177 235 210 232 272 264 238 264 262 273 285 293 295 297 299 305 313 316 314 312 315 319 310 303 301 305 304 306 298 284 282 277 276 274 268 255 254 247 244 244 237 229 233 236 233 234
Height
1515 1515 1517 1519 1524 1537 1540 1535 1530 1528 1528 1527 1526 1526 1528 1533 1537 1544 1541 1539 1539 1540 1541 1542 1542 1543 1544 1544 1544 1544 1545 1545 1545 1545 1545 1546 1546 1546 1546 1547 1547 1547 1548 1548 1548 1548 1548 1549 1549
1515 1516 1518 1519 1531 1544 1541 1535 1531 1528 1527 1527 1527 1528 1530 1534 1536 1538 1538 1538 1539 1540 1541 1541 1542 1543 1543 1544 1544 1544 1545 1545 1545 1545 1546 1546 1547 1547 1547 1547 1547 1548 1548 1549 1549 1549 1549 1550 1550
1515 1516 1519 1523 1536 1540 1537 1532 1530 1528 1527 1527 1528 1530 1532 1536 1537 1537 1538 1538 1539 1539 1540 1541 1542 1542 1543 1543 1544 1544 1545 1545 1545 1546 1546 1546 1547 1547 1547 1548 1548 1548 1549 1549 1549 1550 1550 1550 1551
1516 1518 1520 1530 1535 1535 1533 1531 1529 1528 1528 1528 1529 1532 1535 1538 1538 1538 1537 1538 1538 1539 1540 1540 1541 1542 1542 1543 1543 1544 1544 1545 1545 1546 1546 1546 1547 1547 1547 1548 1548 1549 1549 1549 1550 1550 1550 1551 1551
1515 1517 1527 1536 1535 1533 1532 1530 1529 1529 1529 1530 1530 1533 1535 1537 1537 1537 1537 1537 1537 1538 1539 1540 1541 1542 1542 1543 1543 1544 1544 1545 1545 1545 1546 1546 1546 1547 1547 1547 1548 1549 1549 1549 1550 1550 1551 1551 1551
1516 1519 1534 1538 1534 1533 1532 1531 1530 1530 1531 1531 1532 1533 1535 1536 1536 1536 1537 1537 1537 1538 1539 1539 1540 1541 1542 1542 1543 1543 1544 1544 1545 1545 1546 1546 1546 1546 1547 1547 1548 1548 1549 1549 1550 1550 1551 1551 1552
1518 1524 1533 1534 1534 1533 1533 1532 1532 1533 1533 1534 1534 1534 1535 1535 1535 1535 1536 1537 1537 1538 1538 1539 1540 1540 1541 1542 1542 1543 1543 1544 1544 1544 1545 1545 1546 1546 1546 1547 1547 1548 1548 1549 1550 1550 1551 1551 1552
1518 1525 1532 1535 1534 1534 1533 1533 1534 1534 1534 1535 1534 1535 1535 1535 1535 1535 1536 1536 1537 1537 1537 1538 1539 1539 1539 1540 1541 1542 1542 1543 1543 1544 1544 1545 1545 1546 1546 1546 1547 1548 1548 1549 1549 1550 1551 1552 1552
1519 1529 1534 1533 1533 1533 1533 1533 1534 1534 1534 1534 1534 1535 1535 1535 1534 1534 1534 1535 1535 1536 1536 1537 1537 1538 1538 1539 1540 1541 1541 1542 1542 1543 1543 1544 1544 1545 1545 1546 1547 1547 1548 1548 1549 1550 1551 1551 1552
1521 1532 1532 1532 1531 1533 1533 1533 1534 1534 1534 1534 1533 1534 1534 1533 1533 1532 1532 1532 1533 1534 1535 1535 1536 1536 1537 1538 1538 1539 1540 1540 1541 1541 1542 1542 1543 1543 1544 1545 1546 1547 1547 1548 1549 1549 1550 1551 1551
1524 1530 1531 1531 1531 1532 1533 1534 1534 1534 1535 1534 1533 1532 1531 1531 1531 1531 1531 1531 1532 1532 1533 1533 1534 1534 1535 1536 1537 1537 1538 1538 1539 1540 1541 1541 1542 1542 1543 1544 1544 1545 1546 1547 1548 1549 1549 1550 1551
1528 1531 1531 1532 1531 1532 1533 1534 1534 1534 1533 1533 1533 1532 1531 1530 1530 1529 1529 1529 1530 1531 1531 1532 1532 1532 1533 1534 1534 1535 1536 1536 1537 1538 1539 1539 1540 1540 1541 1542 1543 1544 1545 1546 1547 1548 1549 1549 1550
1530 1532 1532 1532 1532 1533 1533 1534 1534 1533 1532 1532 1531 1530 1530 1529 1529 1528 1528 1528 1528 1528 1529 1530 1530 1530 1531 1531 1532 1533 1534 1535 1535 1536 1537 1538 1538 1539 1540 1540 1542 1543 1544 1544 1545 1547 1548 1548 1549
1531 1532 1533 1533 1532 1533 1533 1533 1534 1531 1531 1530 1529 1529 1528 1528 1527 1527 1526 1526 1526 1527 1527 1527 1528 1528 1528 1529 1530 1531 1531 1532 1533 1534 1535 1536 1536 1537 1538 1539 1540 1541 1542 1543 1544 1545 1546 1547 1548
1531 1533 1534 1533 1532 1533 1533 1534 1532 1529 1530 1529 1528 1527 1526 1526 1525 1525 1525 1524 1524 1525 1525 1525 1526 1526 1526 1526 1527 1528 1529 1530 1530 1531 1532 1533 1534 1535 1536 1537 1538 1539 1540 1541 1542 1543 1545 1546 1547
1533 1536 1538 1534 1533 1533 1537 1535 1529 1529 1528 1527 1526 1525 1524 1524 1523 1523 1523 1523 1523 1523 1523 1523 1523 1523 1524 1524 1524 1525 1526 1527 1527 1528 1529 1531 1531 1532 1533 1534 1535 1537 1538 1539 1540 1541 1542 1543 1545
1538 1540 1538 1536 1533 1533 1535 1533 1528 1527 1526 1524 1524 1523 1522 1521 1521 1521 1521 1521 1520 1521 1521 1521 1521 1521 1521 1521 1521 1522 1523 1524 1524 1525 1526 1527 1528 1529 1531 1532 1533 1534 1535 1537 1537 1539 1540 1541 1542
1540 1541 1539 1537 1534 1534 1535 1531 1526 1525 1524 1522 1521 1521 1520 1519 1519 1519 1519 1518 1518 1518 1518 1518 1518 1518 1518 1518 1519 1519 1520 1521 1521 1522 1522 1524 1525 1526 1528 1529 1530 1531 1532 1534 1535 1536 1538 1539 1540
1537 1539 1539 1536 1533 1534 1532 1528 1523 1522 1521 1519 1518 1518 1518 1517 1517 1517 1516 1516 1515 1515 1515 1515 1515 1515 1515 1515 1515 1515 1515 1517 1518 1518 1519 1521 1522 1523 1524 1525 1527 1528 1529 1530 1532 1533 1535 1536 1538
1536 1538 1539 1536 1533 1533 1531 1526 1520 1518 1517 1516 1516 1515 1515 1515 1514 1514 1513 1513 1513 1512 1512 1512 1512 1512 1512 1512 1512 1512 1512 1513 1514 1515 1516 1517 1518 1519 1520 1521 1523 1524 1526 1527 1528 1530 1531 1533 1535
1537 1538 1538 1537 1534 1532 1532 1525 1518 1515 1514 1514 1514 1513 1513 1512 1512 1512 1511 1511 1510 1510 1509 1509 1509 1509 1508 1508 1508 1509 1509 1510 1510 1510 1511 1512 1513 1515 1516 1518 1519 1520 1522 1523 1524 1526 1528 1529 1532
1537 1535 1535 1536 1539 1540 1536 1534 1519 1516 1514 1512 1511 1510 1510 1510 1510 1510 1509 1509 1508 1508 1507 1507 1506 1506 1505 1505 1505 1505 1505 1505 1505 1506 1507 1508 1509 1510 1512 1513 1515 1516 1518 1519 1520 1523 1524 1526 1527
1536 1535 1536 1537 1539 1543 1539 1540 1523 1518 1515 1512 1510 1510 1509 1509 1508 1508 1507 1506 1506 1505 1505 1504 1503 1502 1502 1502 1501 1501 1501 1501 1502 1502 1503 1504 1505 1506 1507 1509 1511 1512 1513 1515 1516 1518 1520 1522 1523
1536 1537 1538 1541 1544 1544 1538 1540 1526 1522 1516 1512 1510 1509 1508 1508 1507 1506 1506 1505 1504 1503 1502 1501 1500 1499 1498 1498 1498 1497 1497 1497 1497 1498 1498 1499 1500 1501 1502 1504 1506 1507 1509 1510 1511 1513 1515 1517 1519
1539 1543 1548 1546 1551 1542 1535 1535 1526 1517 1514 1512 1510 1508 1507 1507 1506 1505 1504 1502 1501 1500 1499 1498 1497 1495 1495 1495 1493 1493 1493 1493 1493 1493 1493 1494 1495 1496 1498 1499 1501 1502 1504 1505 1507 1508 1510 1512 1514
1542 1544 1549 1550 1547 1541 1538 1534 1521 1514 1512 1511 1509 1508 1507 1506 1505 1504 1502 1501 1500 1498 1497 1495 1493 1492 1491 1491 1490 1489 1488 1488 1488 1489 1489 1489 1490 1491 1493 1494 1496 1497 1499 1501 1502 1504 1505 1507 1508
1543 1547 1548 1555 1556 1554 1540 1532 1520 1513 1512 1510 1509 1508 1506 1505 1504 1503 1501 1499 1498 1496 1494 1493 1491 1489 1488 1487 1486 1485 1484 1483 1483 1484 1485 1484 1485 1486 1487 1489 1490 1492 1494 1495 1497 1498 1500 1501 1503
1543 1546 1552 1554 1552 1547 1539 1534 1524 1515 1512 1511 1509 1507 1506 1505 1503 1501 1499 1497 1495 1494 1492 1490 1487 1485 1484 1483 1481 1480 1479 1479 1479 1479 1480 1480 1480 1481 1482 1483 1485 1486 1488 1490 1491 1492 1494 1495 1497
1547 1548 1549 1553 1554 1551 1544 1528 1516 1513 1510 1509 1507 1506 1505 1503 1501 1499 1497 1495 1493 1491 1489 1486 1484 1482 1481 1479 1477 1476 1475 1475 1474 1474 1475 1475 1475 1476 1477 1478 1479 1480 1482 1483 1485 1486 1488 1489 1491
1543 1545 1548 1549 1550 1554 1549 1529 1511 1510 1507 1506 1505 1504 1503 1502 1500 1497 1495 1492 1490 1488 1485 1483 1480 1479 1477 1475 1473 1472 1471 1470 1470 1469 1469 1470 1470 1471 1471 1472 1473 1474 1475 1477 1478 1480 1481 1482 1484